Showing default

KINEIS-5E, 62083

Orbit data source: Space-Track

KINEIS-5E, 62083 is a French payload satellite in SSO that was launched on Mon, 25 Nov 2024 UTC via an ELECTRON launch vehicle from the Rocket Lab Launch Complex (RLLC). Payload-class satellites include a variety of spacecraft equipped with specific instruments for various scientific and technological missions. These include communications satellites like Starlink; space stations such as the ISS; scientific satellites like the Hubble; Earth observation satellites from companies like Planet Labs, Umbra, and HawkEye 360; GPS; miniature CubeSats for education and research; and military/defense satellites.

Loading next visibility...
Identifier
62083, 2024-219C
Orbit
SSO
Country
Flag of FRFR
Related business
Manufacturer
KINEIS
Mission
Operational Commercial Communications
Bus & Motor
CUBESAT 16U, Unknown motor
Mass
28 kg wet, 28 kg dry
Launch date (UTC)
2024-11-25 (11 months ago)
Launch vehicle
ELECTRON
Launch site
Rocket Lab Launch Complex (RLLC)
Object type
Payload
Rocket body
Debris
Shape & HBR
Box + 2 Pan + 1 Ant, 1.0 m
Radar Cross Section
0.229 m², Medium (>0.1 m² and < 1m²)

Expand to show TLE details & history
Last TLE update: 9 hours ago

TLE from 9 hours ago
0 KINEIS-5E
1 62083U 24219C   25309.31389779  .00001063  00000-0  17586-3 0  9993
2 62083  97.9847 108.1320 0001206  67.9557 292.1778 14.72332928 50820
Epoch: 2025-11-05T07:32Z
TLE epoch observation values (Epoch: 2025-11-05T07:32:00.769Z)
Latitude
-0.00005°
Longitude
-49.65955°
Altitude
656.319 km
Speed
7.529 km/s
True Right ascension
07h 12m 31s
True Declination
0° 00' 00"
Sunlit
Object was in daylight at epoch
Visualization orbit readout
Latitude
Unknown
Longitude
Unknown
Altitude
Unknown
Speed
Unknown
Apparent Right ascension
Unknown
Apparent Declination
Unknown
Sunlit
N/A
Visualization observer readout
Local Sidereal Time
12:11:43
Azimuth
Unknown
Elevation
Unknown
Doppler factor
Unknown
Orbital elements
Apogee altitude
651.533 km
Perigee altitude
649.838 km
Semi-major axis
7,028.822 km
Eccentricity
0.00012
Inclination
97.9847°
RAAN
108.132°
Arg. of periapsis
67.9557°
True anomaly
292.165°
Mean anomaly
292.1778°
Eccentric anomaly
292.1714°
Mean motion
3.68315 °/min
Orbital period
97.74 mins
BSTAR
0.00017586
Loading maneuver chart data...
Computing Atmospheric mass density...
Loading historical data...
Loading historical data...
Loading historical data...
Loading historical data...
Loading historical data...
Loading historical data...
Loading historical data...

Documentation

Showing up to 5 results
|